Location: Clifton Park
(41.4873°N, 81.8024°W)
Time: 16:30:39
(UTC+00:00)

Cosmos 773 Rocket - Pass Details

Date: 21 January 2020
Orbit: 746 x 776 km, 74.1° (Epoch: 25 February)

Event Time Altitude Azimuth Distance (km) Brightness Sun altitude
Exits shadow 10:59:21 39° 301° (WNW) 1,155 4.4 -20.2°
Drops below altitude 10° 11:04:06 10° 5° (N) 2,326 6.4 -19.3°
Sets 11:06:39 0° 13° (NNE) 3,253 7.3 -18.9°
